Year,Month,Day,Hour,Minute,Value (Times are PST for windgust in km/hr)
2012,01,27,00,01,1.60
2012,01,27,00,02,1.60
2012,01,27,00,03,1.60
2012,01,27,00,04,1.60
2012,01,27,00,12,1.60
2012,01,27,00,13,1.60
2012,01,27,00,16,1.60
2012,01,27,00,17,1.60
2012,01,27,00,18,3.20
2012,01,27,00,19,1.60
2012,01,27,00,20,1.60
2012,01,27,00,23,1.60
2012,01,27,00,24,1.60
2012,01,27,00,25,1.60
2012,01,27,00,26,1.60
2012,01,27,00,27,1.60
2012,01,27,00,28,1.60
2012,01,27,00,29,3.20
2012,01,27,00,30,3.20
2012,01,27,00,32,1.60
2012,01,27,00,33,4.80
2012,01,27,00,34,3.20
2012,01,27,00,35,1.60
2012,01,27,00,36,3.20
2012,01,27,00,37,3.20
2012,01,27,00,38,3.20
2012,01,27,00,39,1.60
2012,01,27,00,40,3.20
2012,01,27,00,41,3.20
2012,01,27,00,42,3.20
2012,01,27,00,43,3.20
2012,01,27,00,44,1.60
2012,01,27,00,45,3.20
2012,01,27,00,46,3.20
2012,01,27,00,47,4.80
2012,01,27,00,48,1.60
2012,01,27,00,49,1.60
2012,01,27,00,55,3.20
2012,01,27,00,56,3.20
2012,01,27,00,57,1.60
2012,01,27,01,00,1.60
2012,01,27,01,01,1.60
2012,01,27,01,02,1.60
2012,01,27,01,03,1.60
2012,01,27,01,04,1.60
2012,01,27,01,23,3.20
2012,01,27,01,24,1.60
2012,01,27,01,54,1.60
2012,01,27,02,03,1.60
2012,01,27,02,04,1.60
2012,01,27,02,29,1.60
2012,01,27,02,30,3.20
2012,01,27,02,31,3.20
2012,01,27,02,32,1.60
2012,01,27,02,33,3.20
2012,01,27,02,34,1.60
2012,01,27,02,36,1.60
2012,01,27,02,37,1.60
2012,01,27,02,41,3.20
2012,01,27,02,42,3.20
2012,01,27,02,43,1.60
2012,01,27,02,44,1.60
2012,01,27,02,45,1.60
2012,01,27,02,46,1.60
2012,01,27,02,47,3.20
2012,01,27,02,48,3.20
2012,01,27,02,49,1.60
2012,01,27,02,50,1.60
2012,01,27,02,55,1.60
2012,01,27,02,56,1.60
2012,01,27,02,57,1.60
2012,01,27,02,58,1.60
2012,01,27,02,59,1.60
2012,01,27,03,00,1.60
2012,01,27,03,01,1.60
2012,01,27,03,02,1.60
2012,01,27,03,03,1.60
2012,01,27,03,04,1.60
2012,01,27,03,06,1.60
2012,01,27,03,07,1.60
2012,01,27,03,08,3.20
2012,01,27,03,09,3.20
2012,01,27,03,10,1.60
2012,01,27,03,11,1.60
2012,01,27,03,12,1.60
2012,01,27,03,13,1.60
2012,01,27,03,14,1.60
2012,01,27,03,15,1.60
2012,01,27,03,29,3.20
2012,01,27,03,30,3.20
2012,01,27,03,33,3.20
2012,01,27,03,34,3.20
2012,01,27,03,35,3.20
2012,01,27,03,36,1.60
2012,01,27,03,37,1.60
2012,01,27,03,38,1.60
2012,01,27,03,39,1.60
2012,01,27,03,42,3.20
2012,01,27,03,43,1.60
2012,01,27,03,44,1.60
2012,01,27,03,45,1.60
2012,01,27,03,46,1.60
2012,01,27,03,49,1.60
2012,01,27,03,50,1.60
2012,01,27,03,51,1.60
2012,01,27,03,59,1.60
2012,01,27,04,00,1.60
2012,01,27,04,02,1.60
2012,01,27,04,03,1.60
2012,01,27,04,04,1.60
2012,01,27,04,05,1.60
2012,01,27,04,11,1.60
2012,01,27,04,12,1.60
2012,01,27,04,13,1.60
2012,01,27,04,14,1.60
2012,01,27,04,15,1.60
2012,01,27,04,59,1.60
2012,01,27,05,00,1.60
2012,01,27,05,46,1.60
2012,01,27,05,47,1.60
2012,01,27,05,48,1.60
2012,01,27,05,49,1.60
2012,01,27,06,00,1.60
2012,01,27,06,01,1.60
2012,01,27,06,02,1.60
2012,01,27,06,04,1.60
2012,01,27,06,05,1.60
2012,01,27,06,06,1.60
2012,01,27,06,07,3.20
2012,01,27,06,08,3.20
2012,01,27,06,09,3.20
2012,01,27,06,10,3.20
2012,01,27,06,11,3.20
2012,01,27,06,12,3.20
2012,01,27,06,13,3.20
2012,01,27,06,14,3.20
2012,01,27,06,15,3.20
2012,01,27,06,16,3.20
2012,01,27,06,17,3.20
2012,01,27,06,18,3.20
2012,01,27,06,19,1.60
2012,01,27,06,20,3.20
2012,01,27,06,21,1.60
2012,01,27,06,22,1.60
2012,01,27,06,23,1.60
2012,01,27,06,24,1.60
2012,01,27,06,25,3.20
2012,01,27,06,26,3.20
2012,01,27,06,27,1.60
2012,01,27,06,28,1.60
2012,01,27,06,29,1.60
2012,01,27,06,30,3.20
2012,01,27,06,31,3.20
2012,01,27,06,32,1.60
2012,01,27,06,33,1.60
2012,01,27,06,34,3.20
2012,01,27,06,35,1.60
2012,01,27,06,36,1.60
2012,01,27,06,37,3.20
2012,01,27,06,38,3.20
2012,01,27,06,39,1.60
2012,01,27,06,40,1.60
2012,01,27,06,41,3.20
2012,01,27,06,42,1.60
2012,01,27,06,43,1.60
2012,01,27,06,44,1.60
2012,01,27,06,45,1.60
2012,01,27,06,46,1.60
2012,01,27,06,47,1.60
2012,01,27,06,48,1.60
2012,01,27,06,49,1.60
2012,01,27,06,58,1.60
2012,01,27,06,59,1.60
2012,01,27,07,00,1.60
2012,01,27,07,43,1.60
2012,01,27,07,44,1.60
2012,01,27,07,45,1.60
2012,01,27,07,46,1.60
2012,01,27,07,47,3.20
2012,01,27,07,48,3.20
2012,01,27,07,52,1.60
2012,01,27,07,53,3.20
2012,01,27,07,54,3.20
2012,01,27,07,55,3.20
2012,01,27,07,56,1.60
2012,01,27,07,57,1.60
2012,01,27,07,58,3.20
2012,01,27,07,59,3.20
2012,01,27,08,00,3.20
2012,01,27,08,01,3.20
2012,01,27,08,02,3.20
2012,01,27,08,03,1.60
2012,01,27,08,04,1.60
2012,01,27,08,06,3.20
2012,01,27,08,07,1.60
2012,01,27,08,08,1.60
2012,01,27,08,09,3.20
2012,01,27,08,10,3.20
2012,01,27,08,11,1.60
2012,01,27,08,12,1.60
2012,01,27,08,13,1.60
2012,01,27,08,14,1.60
2012,01,27,08,15,1.60
2012,01,27,08,17,1.60
2012,01,27,08,20,1.60
2012,01,27,08,29,3.20
2012,01,27,08,30,1.60
2012,01,27,08,31,1.60
2012,01,27,08,37,3.20
2012,01,27,08,38,1.60
2012,01,27,08,55,1.60
2012,01,27,08,56,1.60
2012,01,27,08,57,3.20
2012,01,27,08,58,1.60
2012,01,27,09,01,1.60
2012,01,27,09,02,1.60
2012,01,27,09,06,3.20
2012,01,27,09,07,1.60
2012,01,27,09,08,1.60
2012,01,27,09,09,3.20
2012,01,27,09,10,1.60
2012,01,27,09,11,4.80
2012,01,27,09,12,4.80
2012,01,27,09,13,3.20
2012,01,27,09,14,1.60
2012,01,27,09,15,1.60
2012,01,27,09,16,1.60
2012,01,27,09,17,1.60
2012,01,27,09,18,1.60
2012,01,27,09,19,1.60
2012,01,27,09,25,1.60
2012,01,27,09,26,1.60
2012,01,27,09,27,1.60
2012,01,27,09,29,3.20
2012,01,27,09,30,1.60
2012,01,27,09,31,3.20
2012,01,27,09,32,1.60
2012,01,27,09,33,3.20
2012,01,27,09,34,1.60
2012,01,27,09,36,1.60
2012,01,27,09,37,1.60
2012,01,27,09,38,1.60
2012,01,27,09,39,3.20
2012,01,27,09,40,3.20
2012,01,27,09,41,3.20
2012,01,27,09,42,1.60
2012,01,27,09,43,1.60
2012,01,27,09,44,3.20
2012,01,27,09,45,4.80
2012,01,27,09,46,4.80
2012,01,27,09,47,4.80
2012,01,27,09,48,1.60
2012,01,27,09,49,1.60
2012,01,27,09,50,4.80
2012,01,27,09,51,3.20
2012,01,27,09,52,3.20
2012,01,27,09,53,4.80
2012,01,27,09,54,4.80
2012,01,27,09,55,3.20
2012,01,27,09,56,4.80
2012,01,27,09,57,6.40
2012,01,27,09,58,11.30
2012,01,27,09,59,1.60
2012,01,27,10,00,3.20
2012,01,27,10,01,3.20
2012,01,27,10,02,1.60
2012,01,27,10,03,4.80
2012,01,27,10,04,4.80
2012,01,27,10,05,3.20
2012,01,27,10,06,3.20
2012,01,27,10,07,1.60
2012,01,27,10,08,3.20
2012,01,27,10,09,4.80
2012,01,27,10,11,3.20
2012,01,27,10,12,6.40
2012,01,27,10,13,4.80
2012,01,27,10,14,9.60
2012,01,27,10,15,8.10
2012,01,27,10,16,3.20
2012,01,27,10,17,3.20
2012,01,27,10,18,4.80
2012,01,27,10,19,6.40
2012,01,27,10,20,1.60
2012,01,27,10,21,3.20
2012,01,27,10,22,4.80
2012,01,27,10,23,6.40
2012,01,27,10,24,4.80
2012,01,27,10,25,3.20
2012,01,27,10,26,4.80
2012,01,27,10,27,8.10
2012,01,27,10,28,6.40
2012,01,27,10,29,8.10
2012,01,27,10,30,9.60
2012,01,27,10,31,3.20
2012,01,27,10,32,1.60
2012,01,27,10,33,4.80
2012,01,27,10,34,6.40
2012,01,27,10,35,6.40
2012,01,27,10,36,6.40
2012,01,27,10,37,8.10
2012,01,27,10,38,3.20
2012,01,27,10,39,3.20
2012,01,27,10,41,1.60
2012,01,27,10,42,1.60
2012,01,27,10,43,4.80
2012,01,27,10,44,6.40
2012,01,27,10,45,6.40
2012,01,27,10,46,6.40
2012,01,27,10,47,4.80
2012,01,27,10,48,6.40
2012,01,27,10,49,4.80
2012,01,27,10,50,4.80
2012,01,27,10,51,6.40
2012,01,27,10,52,8.10
2012,01,27,10,53,8.10
2012,01,27,10,54,8.10
2012,01,27,10,55,3.20
2012,01,27,10,56,4.80
2012,01,27,10,57,6.40
2012,01,27,10,58,1.60
2012,01,27,10,59,8.10
2012,01,27,11,00,9.60
2012,01,27,11,01,6.40
2012,01,27,11,02,9.60
2012,01,27,11,03,3.20
2012,01,27,11,04,4.80
2012,01,27,11,05,8.10
2012,01,27,11,06,4.80
2012,01,27,11,07,6.40
2012,01,27,11,08,6.40
2012,01,27,11,09,4.80
2012,01,27,11,10,4.80
2012,01,27,11,11,4.80
2012,01,27,11,12,1.60
2012,01,27,11,13,4.80
2012,01,27,11,14,6.40
2012,01,27,11,15,9.60
2012,01,27,11,16,4.80
2012,01,27,11,17,8.10
2012,01,27,11,18,9.60
2012,01,27,11,19,8.10
2012,01,27,11,20,1.60
2012,01,27,11,21,4.80
2012,01,27,11,22,4.80
2012,01,27,11,23,8.10
2012,01,27,11,24,8.10
2012,01,27,11,25,4.80
2012,01,27,11,26,6.40
2012,01,27,11,27,8.10
2012,01,27,11,28,8.10
2012,01,27,11,29,9.60
2012,01,27,11,30,9.60
2012,01,27,11,31,8.10
2012,01,27,11,32,8.10
2012,01,27,11,33,11.30
2012,01,27,11,34,4.80
2012,01,27,11,35,4.80
2012,01,27,11,36,4.80
2012,01,27,11,37,8.10
2012,01,27,11,38,4.80
2012,01,27,11,39,3.20
2012,01,27,11,40,6.40
2012,01,27,11,41,3.20
2012,01,27,11,42,3.20
2012,01,27,11,43,4.80
2012,01,27,11,44,3.20
2012,01,27,11,45,1.60
2012,01,27,11,46,8.10
2012,01,27,11,47,8.10
2012,01,27,11,48,6.40
2012,01,27,11,49,6.40
2012,01,27,11,50,8.10
2012,01,27,11,51,4.80
2012,01,27,11,52,6.40
2012,01,27,11,53,4.80
2012,01,27,11,54,8.10
2012,01,27,11,55,6.40
2012,01,27,11,56,4.80
2012,01,27,11,57,4.80
2012,01,27,11,58,1.60
2012,01,27,11,59,9.60
2012,01,27,12,00,11.30
2012,01,27,12,01,6.40
2012,01,27,12,02,6.40
2012,01,27,12,03,9.60
2012,01,27,12,04,6.40
2012,01,27,12,05,4.80
2012,01,27,12,06,6.40
2012,01,27,12,07,6.40
2012,01,27,12,08,4.80
2012,01,27,12,09,8.10
2012,01,27,12,10,4.80
2012,01,27,12,11,6.40
2012,01,27,12,12,4.80
2012,01,27,12,13,4.80
2012,01,27,12,14,8.10
2012,01,27,12,15,6.40
2012,01,27,12,16,3.20
2012,01,27,12,17,9.60
2012,01,27,12,18,3.20
2012,01,27,12,19,8.10
2012,01,27,12,20,4.80
2012,01,27,12,21,1.60
2012,01,27,12,22,4.80
2012,01,27,12,23,6.40
2012,01,27,12,24,8.10
2012,01,27,12,25,4.80
2012,01,27,12,26,11.30
2012,01,27,12,27,6.40
2012,01,27,12,28,6.40
2012,01,27,12,29,6.40
2012,01,27,12,30,6.40
2012,01,27,12,31,4.80
2012,01,27,12,32,1.60
2012,01,27,12,33,3.20
2012,01,27,12,34,3.20
2012,01,27,12,35,1.60
2012,01,27,12,36,3.20
2012,01,27,12,37,3.20
2012,01,27,12,38,3.20
2012,01,27,12,39,9.60
2012,01,27,12,40,9.60
2012,01,27,12,41,9.60
2012,01,27,12,42,9.60
2012,01,27,12,43,8.10
2012,01,27,12,44,8.10
2012,01,27,12,45,3.20
2012,01,27,12,46,11.30
2012,01,27,12,47,12.90
2012,01,27,12,48,11.30
2012,01,27,12,49,6.40
2012,01,27,12,50,3.20
2012,01,27,12,51,3.20
2012,01,27,12,52,4.80
2012,01,27,12,53,6.40
2012,01,27,12,54,3.20
2012,01,27,12,55,9.60
2012,01,27,12,56,12.90
2012,01,27,12,57,8.10
2012,01,27,12,58,9.60
2012,01,27,12,59,9.60
2012,01,27,13,00,4.80
2012,01,27,13,01,6.40
2012,01,27,13,02,4.80
2012,01,27,13,03,6.40
2012,01,27,13,04,4.80
2012,01,27,13,05,3.20
2012,01,27,13,06,6.40
2012,01,27,13,07,16.10
2012,01,27,13,08,9.60
2012,01,27,13,09,6.40
2012,01,27,13,10,3.20
2012,01,27,13,11,9.60
2012,01,27,13,12,8.10
2012,01,27,13,13,14.50
2012,01,27,13,14,6.40
2012,01,27,13,15,4.80
2012,01,27,13,16,6.40
2012,01,27,13,17,3.20
2012,01,27,13,18,6.40
2012,01,27,13,19,4.80
2012,01,27,13,20,6.40
2012,01,27,13,21,8.10
2012,01,27,13,22,1.60
2012,01,27,13,23,3.20
2012,01,27,13,24,3.20
2012,01,27,13,25,8.10
2012,01,27,13,26,6.40
2012,01,27,13,27,1.60
2012,01,27,13,28,3.20
2012,01,27,13,29,4.80
2012,01,27,13,30,6.40
2012,01,27,13,31,6.40
2012,01,27,13,32,4.80
2012,01,27,13,33,4.80
2012,01,27,13,34,4.80
2012,01,27,13,35,4.80
2012,01,27,13,36,3.20
2012,01,27,13,38,4.80
2012,01,27,13,39,3.20
2012,01,27,13,40,1.60
2012,01,27,13,41,3.20
2012,01,27,13,42,1.60
2012,01,27,13,43,3.20
2012,01,27,13,44,14.50
2012,01,27,13,45,4.80
2012,01,27,13,46,4.80
2012,01,27,13,47,4.80
2012,01,27,13,48,4.80
2012,01,27,13,49,9.60
2012,01,27,13,50,8.10
2012,01,27,13,51,3.20
2012,01,27,13,52,4.80
2012,01,27,13,53,6.40
2012,01,27,13,54,6.40
2012,01,27,13,55,3.20
2012,01,27,13,56,4.80
2012,01,27,13,57,9.60
2012,01,27,13,58,11.30
2012,01,27,13,59,9.60
2012,01,27,14,00,3.20
2012,01,27,14,01,6.40
2012,01,27,14,02,3.20
2012,01,27,14,03,6.40
2012,01,27,14,04,8.10
2012,01,27,14,05,6.40
2012,01,27,14,06,6.40
2012,01,27,14,07,11.30
2012,01,27,14,08,8.10
2012,01,27,14,09,8.10
2012,01,27,14,10,9.60
2012,01,27,14,11,9.60
2012,01,27,14,12,4.80
2012,01,27,14,13,4.80
2012,01,27,14,14,4.80
2012,01,27,14,15,8.10
2012,01,27,14,16,4.80
2012,01,27,14,17,3.20
2012,01,27,14,18,3.20
2012,01,27,14,19,3.20
2012,01,27,14,20,9.60
2012,01,27,14,21,16.10
2012,01,27,14,22,6.40
2012,01,27,14,23,11.30
2012,01,27,14,24,12.90
2012,01,27,14,25,6.40
2012,01,27,14,26,9.60
2012,01,27,14,27,17.70
2012,01,27,14,28,8.10
2012,01,27,14,29,6.40
2012,01,27,14,30,9.60
2012,01,27,14,31,11.30
2012,01,27,14,32,9.60
2012,01,27,14,33,14.50
2012,01,27,14,34,6.40
2012,01,27,14,35,4.80
2012,01,27,14,36,6.40
2012,01,27,14,37,4.80
2012,01,27,14,38,4.80
2012,01,27,14,39,16.10
2012,01,27,14,40,16.10
2012,01,27,14,41,4.80
2012,01,27,14,42,3.20
2012,01,27,14,43,4.80
2012,01,27,14,44,4.80
2012,01,27,14,45,1.60
2012,01,27,14,46,8.10
2012,01,27,14,47,8.10
2012,01,27,14,48,1.60
2012,01,27,14,49,11.30
2012,01,27,14,50,4.80
2012,01,27,14,51,6.40
2012,01,27,14,52,4.80
2012,01,27,14,53,4.80
2012,01,27,14,54,8.10
2012,01,27,14,55,9.60
2012,01,27,14,56,14.50
2012,01,27,14,57,4.80
2012,01,27,14,58,6.40
2012,01,27,14,59,8.10
2012,01,27,15,00,6.40
2012,01,27,15,01,9.60
2012,01,27,15,02,9.60
2012,01,27,15,03,8.10
2012,01,27,15,04,6.40
2012,01,27,15,05,9.60
2012,01,27,15,06,4.80
2012,01,27,15,07,6.40
2012,01,27,15,08,8.10
2012,01,27,15,09,6.40
2012,01,27,15,10,3.20
2012,01,27,15,11,11.30
2012,01,27,15,12,8.10
2012,01,27,15,13,4.80
2012,01,27,15,14,8.10
2012,01,27,15,15,16.10
2012,01,27,15,16,14.50
2012,01,27,15,17,3.20
2012,01,27,15,18,8.10
2012,01,27,15,19,9.60
2012,01,27,15,20,9.60
2012,01,27,15,21,8.10
2012,01,27,15,22,11.30
2012,01,27,15,23,9.60
2012,01,27,15,24,8.10
2012,01,27,15,25,8.10
2012,01,27,15,26,6.40
2012,01,27,15,27,6.40
2012,01,27,15,28,6.40
2012,01,27,15,29,4.80
2012,01,27,15,30,8.10
2012,01,27,15,31,4.80
2012,01,27,15,32,4.80
2012,01,27,15,33,4.80
2012,01,27,15,34,4.80
2012,01,27,15,35,4.80
2012,01,27,15,36,1.60
2012,01,27,15,37,8.10
2012,01,27,15,38,3.20
2012,01,27,15,39,8.10
2012,01,27,15,40,6.40
2012,01,27,15,42,1.60
2012,01,27,15,43,1.60
2012,01,27,15,44,4.80
2012,01,27,15,45,4.80
2012,01,27,15,46,16.10
2012,01,27,15,47,4.80
2012,01,27,15,48,8.10
2012,01,27,15,49,9.60
2012,01,27,15,50,9.60
2012,01,27,15,51,14.50
2012,01,27,15,52,8.10
2012,01,27,15,53,4.80
2012,01,27,15,54,3.20
2012,01,27,15,55,3.20
2012,01,27,15,56,6.40
2012,01,27,15,57,4.80
2012,01,27,15,58,3.20
2012,01,27,15,59,3.20
2012,01,27,16,00,9.60
2012,01,27,16,01,3.20
2012,01,27,16,02,6.40
2012,01,27,16,03,8.10
2012,01,27,16,04,4.80
2012,01,27,16,05,4.80
2012,01,27,16,06,3.20
2012,01,27,16,07,6.40
2012,01,27,16,08,4.80
2012,01,27,16,09,1.60
2012,01,27,16,10,4.80
2012,01,27,16,11,6.40
2012,01,27,16,12,6.40
2012,01,27,16,13,6.40
2012,01,27,16,14,4.80
2012,01,27,16,15,1.60
2012,01,27,16,16,3.20
2012,01,27,16,17,3.20
2012,01,27,16,18,1.60
2012,01,27,16,19,1.60
2012,01,27,16,20,4.80
2012,01,27,16,21,4.80
2012,01,27,16,22,8.10
2012,01,27,16,23,4.80
2012,01,27,16,24,3.20
2012,01,27,16,25,1.60
2012,01,27,16,26,1.60
2012,01,27,16,28,8.10
2012,01,27,16,29,3.20
2012,01,27,16,30,1.60
2012,01,27,16,31,1.60
2012,01,27,16,32,1.60
2012,01,27,16,33,1.60
2012,01,27,16,35,4.80
2012,01,27,16,36,3.20
2012,01,27,16,37,6.40
2012,01,27,16,38,3.20
2012,01,27,16,40,1.60
2012,01,27,16,41,1.60
2012,01,27,16,43,1.60
2012,01,27,16,55,1.60
2012,01,27,16,56,1.60
2012,01,27,17,15,1.60
2012,01,27,17,16,1.60
2012,01,27,17,26,1.60
2012,01,27,17,27,1.60
2012,01,27,17,28,1.60
2012,01,27,17,29,1.60
2012,01,27,17,30,1.60
2012,01,27,17,31,1.60
2012,01,27,17,59,1.60
2012,01,27,18,00,1.60
2012,01,27,18,03,1.60
2012,01,27,18,04,3.20
2012,01,27,18,05,3.20
2012,01,27,18,06,3.20
2012,01,27,18,07,3.20
2012,01,27,18,08,3.20
2012,01,27,18,09,1.60
2012,01,27,18,10,1.60
2012,01,27,18,19,3.20
2012,01,27,18,20,1.60
2012,01,27,18,21,3.20
2012,01,27,18,22,3.20
2012,01,27,18,23,3.20
2012,01,27,18,24,3.20
2012,01,27,18,25,3.20
2012,01,27,18,26,3.20
2012,01,27,18,27,3.20
2012,01,27,18,28,3.20
2012,01,27,18,29,3.20
2012,01,27,18,31,1.60
2012,01,27,18,32,1.60
2012,01,27,18,40,1.60
2012,01,27,18,41,1.60
2012,01,27,18,42,1.60
2012,01,27,18,43,3.20
2012,01,27,18,44,1.60
2012,01,27,18,45,1.60
2012,01,27,18,47,1.60
2012,01,27,18,48,1.60
2012,01,27,19,10,3.20
2012,01,27,19,11,3.20
2012,01,27,19,12,3.20
2012,01,27,19,13,3.20
2012,01,27,19,14,3.20
2012,01,27,19,15,1.60
2012,01,27,19,16,3.20
2012,01,27,19,17,3.20
2012,01,27,19,18,3.20
2012,01,27,19,19,3.20
2012,01,27,19,20,3.20
2012,01,27,19,21,1.60
2012,01,27,19,22,1.60
2012,01,27,19,23,1.60
2012,01,27,19,24,1.60
2012,01,27,19,25,1.60
2012,01,27,19,27,1.60
2012,01,27,19,38,1.60
2012,01,27,19,39,1.60
2012,01,27,19,40,1.60
2012,01,27,19,41,1.60
2012,01,27,19,42,1.60
2012,01,27,19,43,1.60
2012,01,27,19,44,1.60
2012,01,27,19,45,3.20
2012,01,27,19,46,1.60
2012,01,27,19,47,1.60
2012,01,27,19,51,1.60
2012,01,27,20,21,1.60
2012,01,27,20,22,1.60
2012,01,27,20,23,3.20
2012,01,27,20,24,3.20
2012,01,27,20,25,3.20
2012,01,27,20,26,3.20
2012,01,27,20,27,3.20
2012,01,27,20,28,1.60
2012,01,27,20,29,1.60
2012,01,27,20,43,1.60
2012,01,27,20,44,1.60
2012,01,27,20,45,1.60
2012,01,27,20,46,1.60
2012,01,27,20,59,1.60
2012,01,27,21,00,1.60
2012,01,27,21,01,1.60
2012,01,27,21,02,1.60
2012,01,27,21,03,1.60
2012,01,27,21,18,1.60
2012,01,27,21,19,1.60
2012,01,27,21,20,1.60
2012,01,27,21,21,1.60
2012,01,27,21,22,1.60
2012,01,27,21,24,1.60
2012,01,27,21,25,1.60
2012,01,27,21,26,1.60
2012,01,27,21,27,1.60
2012,01,27,21,28,1.60
2012,01,27,22,30,1.60
2012,01,27,22,31,1.60
2012,01,27,22,32,1.60
2012,01,27,23,04,1.60
2012,01,27,23,05,1.60
2012,01,27,23,16,1.60
2012,01,27,23,17,1.60
2012,01,27,23,18,1.60
2012,01,27,23,19,1.60
2012,01,27,23,20,1.60
2012,01,27,23,21,1.60
2012,01,27,23,22,1.60
2012,01,27,23,27,1.60
2012,01,27,23,28,1.60
2012,01,27,23,29,1.60
2012,01,27,23,30,1.60
2012,01,27,23,31,1.60
2012,01,27,23,32,1.60
2012,01,27,23,33,1.60
2012,01,27,23,38,1.60
2012,01,27,23,39,3.20
2012,01,27,23,40,3.20
2012,01,27,23,41,3.20
2012,01,27,23,42,3.20
2012,01,27,23,43,3.20
2012,01,27,23,44,1.60
2012,01,27,23,45,1.60
2012,01,27,23,46,3.20
2012,01,27,23,47,1.60
2012,01,27,23,50,1.60
2012,01,27,23,51,3.20
2012,01,27,23,52,1.60
2012,01,27,23,53,1.60
2012,01,27,23,54,1.60
2012,01,27,23,55,3.20
2012,01,27,23,56,1.60
